When you browse on this site, cookies collect data to enhance your experience and personalize the content and advertising you see.
Visit our Privacy Policy to learn more. By continuing to use the site, you agree to this use of cookies and data.
  • In Latvia
  • List of Countries
  • For 7 days
  • Water Temperature
  • Satellite Maps
  • Weather Map
  • Weather Widgets
  • user-avatar
    Login

    Hourly Weather Tukums

    Today, 21 July, Sunday

    Time Temperature Precipitation Wind Pressure Humidity
    00:00 +13°C° 0 mm 0 mps 757 mmHg 76%
    01:00 +14°C° 0 mm 1 mps 757 mmHg 75%
    02:00 +14°C° 0 mm 1 mps 758 mmHg 74%
    03:00 +14°C° 0 mm 1 mps 757 mmHg 75%
    04:00 +14°C° 0 mm 1 mps 757 mmHg 76%
    05:00 +14°C° 0 mm 2 mps 757 mmHg 77%
    06:00 +15°C° 0 mm 2 mps 757 mmHg 73%
    07:00 +17°C° 0 mm 2 mps 757 mmHg 70%
    08:00 +19°C° 0 mm 2 mps 757 mmHg 67%
    09:00 +21°C° 0 mm 3 mps 757 mmHg 62%
    10:00 +22°C° 0 mm 3 mps 757 mmHg 58%
    11:00 +25°C° 0 mm 3 mps 757 mmHg 54%
    12:00 +25°C° 0 mm 3 mps 757 mmHg 53%
    13:00 +26°C° 0 mm 3 mps 756 mmHg 51%
    14:00 +27°C° 0 mm 3 mps 756 mmHg 49%
    15:00 +27°C° 0.1 mm 3 mps 756 mmHg 54%
    16:00 +26°C° 0.1 mm 3 mps 756 mmHg 58%
    17:00 +26°C° 0.1 mm 3 mps 756 mmHg 63%
    18:00 +24°C° 0.6 mm 3 mps 756 mmHg 72%
    19:00 +21°C° 0.6 mm 2 mps 755 mmHg 81%
    20:00 +21°C° 0.6 mm 1 mps 755 mmHg 90%
    21:00 +19°C° 0 mm 2 mps 755 mmHg 91%
    22:00 +18°C° 0 mm 2 mps 755 mmHg 93%
    23:00 +17°C° 0 mm 2 mps 756 mmHg 94%

    Tomorrow, 22 July, Monday

    Time Temperature Precipitation Wind Pressure Humidity
    00:00 +17°C° 0.5 mm 2 mps 755 mmHg 95%
    01:00 +16°C° 0.5 mm 2 mps 755 mmHg 96%
    02:00 +16°C° 0.5 mm 2 mps 755 mmHg 97%
    03:00 +16°C° 0 mm 2 mps 755 mmHg 97%
    04:00 +16°C° 0 mm 2 mps 755 mmHg 97%
    05:00 +16°C° 0 mm 2 mps 755 mmHg 97%
    06:00 +17°C° 0 mm 2 mps 755 mmHg 95%
    07:00 +19°C° 0 mm 1 mps 755 mmHg 92%
    08:00 +20°C° 0 mm 1 mps 755 mmHg 90%
    09:00 +21°C° 0.2 mm 1 mps 755 mmHg 85%
    10:00 +22°C° 0.2 mm 1 mps 755 mmHg 81%
    11:00 +23°C° 0.2 mm 1 mps 756 mmHg 76%
    12:00 +23°C° 1.1 mm 1 mps 756 mmHg 79%
    13:00 +23°C° 1.1 mm 2 mps 756 mmHg 81%
    14:00 +23°C° 1.1 mm 2 mps 756 mmHg 84%
    15:00 +21°C° 1.5 mm 2 mps 756 mmHg 85%
    16:00 +21°C° 1.5 mm 3 mps 756 mmHg 86%
    17:00 +20°C° 1.5 mm 3 mps 756 mmHg 87%
    18:00 +20°C° 1.1 mm 3 mps 756 mmHg 89%
    19:00 +19°C° 1.1 mm 3 mps 756 mmHg 91%
    20:00 +18°C° 1.1 mm 3 mps 756 mmHg 93%
    21:00 +17°C° 0.2 mm 3 mps 756 mmHg 94%
    22:00 +16°C° 0.2 mm 3 mps 756 mmHg 95%
    23:00 +16°C° 0.2 mm 3 mps 756 mmHg 96%

    Day after tomorrow, 23 July, Tuesday

    Time Temperature Precipitation Wind Pressure Humidity
    00:00 +14°C° 0 mm 3 mps 756 mmHg 96%
    01:00 +14°C° 0 mm 3 mps 756 mmHg 96%
    02:00 +15°C° 0 mm 2 mps 756 mmHg 96%
    03:00 +15°C° 0 mm 2 mps 756 mmHg 96%
    04:00 +14°C° 0 mm 2 mps 757 mmHg 96%
    05:00 +14°C° 0 mm 1 mps 757 mmHg 96%
    06:00 +16°C° 0 mm 1 mps 757 mmHg 93%
    07:00 +18°C° 0 mm 1 mps 757 mmHg 89%
    08:00 +19°C° 0 mm 1 mps 757 mmHg 86%
    09:00 +21°C° 0 mm 1 mps 757 mmHg 78%
    10:00 +23°C° 0 mm 1 mps 757 mmHg 70%
    11:00 +24°C° 0 mm 1 mps 757 mmHg 62%
    12:00 +24°C° 0.2 mm 2 mps 757 mmHg 64%
    13:00 +24°C° 0.2 mm 2 mps 757 mmHg 66%
    14:00 +24°C° 0.2 mm 3 mps 757 mmHg 68%
    15:00 +24°C° 0.4 mm 3 mps 757 mmHg 70%
    16:00 +22°C° 0.4 mm 3 mps 757 mmHg 72%
    17:00 +22°C° 0.4 mm 3 mps 757 mmHg 74%
    18:00 +21°C° 0 mm 3 mps 757 mmHg 77%
    19:00 +20°C° 0 mm 2 mps 757 mmHg 80%
    20:00 +19°C° 0 mm 2 mps 757 mmHg 83%
    21:00 +18°C° 0 mm 2 mps 757 mmHg 86%
    22:00 +17°C° 0 mm 2 mps 757 mmHg 88%
    23:00 +16°C° 0 mm 2 mps 758 mmHg 91%

    24 July, Wednesday

    Time Temperature Precipitation Wind Pressure Humidity
    00:00 +16°C° 0 mm 1 mps 758 mmHg 91%
    01:00 +15°C° 0 mm 1 mps 758 mmHg 92%
    02:00 +15°C° 0 mm 1 mps 758 mmHg 93%
    03:00 +15°C° 0 mm 1 mps 758 mmHg 92%
    04:00 +15°C° 0 mm 1 mps 758 mmHg 92%
    05:00 +16°C° 0 mm 1 mps 758 mmHg 91%
    06:00 +18°C° 0 mm 1 mps 758 mmHg 86%
    07:00 +19°C° 0 mm 1 mps 758 mmHg 81%
    08:00 +21°C° 0 mm 1 mps 758 mmHg 76%
    09:00 +22°C° 0 mm 1 mps 758 mmHg 72%
    10:00 +23°C° 0 mm 1 mps 759 mmHg 67%
    11:00 +24°C° 0 mm 1 mps 759 mmHg 63%
    12:00 +24°C° 0 mm 1 mps 759 mmHg 62%
    13:00 +24°C° 0 mm 1 mps 759 mmHg 62%
    14:00 +24°C° 0 mm 1 mps 759 mmHg 62%
    15:00 +24°C° 0 mm 2 mps 759 mmHg 63%
    16:00 +24°C° 0 mm 2 mps 759 mmHg 65%
    17:00 +24°C° 0 mm 2 mps 759 mmHg 66%
    18:00 +21°C° 0 mm 2 mps 759 mmHg 71%
    19:00 +20°C° 0 mm 2 mps 759 mmHg 76%
    20:00 +20°C° 0 mm 1 mps 759 mmHg 80%
    21:00 +19°C° 0 mm 1 mps 759 mmHg 82%
    22:00 +18°C° 0 mm 1 mps 760 mmHg 85%
    23:00 +16°C° 0 mm 1 mps 760 mmHg 87%

    25 July, Thursday

    Time Temperature Precipitation Wind Pressure Humidity
    00:00 +16°C° 0 mm 1 mps 760 mmHg 88%
    01:00 +16°C° 0 mm 1 mps 760 mmHg 89%
    02:00 +15°C° 0 mm 1 mps 761 mmHg 91%
    03:00 +15°C° 0 mm 1 mps 761 mmHg 90%
    04:00 +15°C° 0 mm 1 mps 761 mmHg 90%
    05:00 +15°C° 0 mm 1 mps 761 mmHg 90%
    06:00 +18°C° 0 mm 1 mps 761 mmHg 84%
    07:00 +20°C° 0 mm 1 mps 761 mmHg 78%
    08:00 +22°C° 0 mm 1 mps 762 mmHg 73%
    09:00 +23°C° 0 mm 1 mps 762 mmHg 68%
    10:00 +24°C° 0 mm 1 mps 762 mmHg 63%
    11:00 +25°C° 0 mm 2 mps 762 mmHg 58%
    12:00 +25°C° 0 mm 2 mps 762 mmHg 57%
    13:00 +26°C° 0 mm 2 mps 762 mmHg 55%
    14:00 +26°C° 0 mm 2 mps 762 mmHg 53%
    15:00 +26°C° 0 mm 2 mps 762 mmHg 55%
    16:00 +26°C° 0 mm 2 mps 762 mmHg 56%
    17:00 +25°C° 0 mm 2 mps 762 mmHg 57%
    18:00 +24°C° 0 mm 2 mps 762 mmHg 63%
    19:00 +21°C° 0 mm 2 mps 762 mmHg 70%
    20:00 +21°C° 0 mm 1 mps 762 mmHg 76%
    21:00 +20°C° 0 mm 1 mps 762 mmHg 77%
    22:00 +19°C° 0 mm 1 mps 762 mmHg 77%
    23:00 +18°C° 0 mm 1 mps 762 mmHg 78%

    26 July, Friday

    Time Temperature Precipitation Wind Pressure Humidity
    00:00 +16°C° 0 mm 0 mps 762 mmHg 78%
    01:00 +16°C° 0 mm 0 mps 762 mmHg 79%
    02:00 +16°C° 0 mm 0 mps 762 mmHg 79%
    03:00 +16°C° 0 mm 0 mps 762 mmHg 79%
    04:00 +16°C° 0 mm 0 mps 762 mmHg 79%
    05:00 +16°C° 0 mm 0 mps 762 mmHg 79%
    06:00 +18°C° 0 mm 0 mps 762 mmHg 74%
    07:00 +20°C° 0 mm 0 mps 762 mmHg 70%
    08:00 +22°C° 0 mm 0 mps 762 mmHg 65%
    09:00 +25°C° 0 mm 1 mps 762 mmHg 62%
    10:00 +26°C° 0 mm 1 mps 762 mmHg 59%
    11:00 +28°C° 0 mm 1 mps 762 mmHg 56%
    12:00 +28°C° 0 mm 1 mps 762 mmHg 55%
    13:00 +29°C° 0 mm 1 mps 762 mmHg 53%
    14:00 +29°C° 0 mm 1 mps 761 mmHg 51%
    15:00 +29°C° 0 mm 1 mps 761 mmHg 53%
    16:00 +28°C° 0 mm 1 mps 761 mmHg 55%
    17:00 +28°C° 0 mm 1 mps 761 mmHg 56%
    18:00 +26°C° 0 mm 2 mps 760 mmHg 62%
    19:00 +24°C° 0 mm 2 mps 760 mmHg 68%
    20:00 +21°C° 0 mm 2 mps 760 mmHg 75%
    21:00 +21°C° 0 mm 1 mps 760 mmHg 75%
    22:00 +21°C° 0 mm 1 mps 760 mmHg 75%
    23:00 +20°C° 0 mm 1 mps 760 mmHg 75%
    Show more